QPF
0.00 0.00 0.00 0.00 0.00 0.00 0.00 0.00 0.00 0.00 0.00 0.00 0.00 0.00 0.00 0.00 0.00 0.00 0.00 0.00 0.00 0.00 0.00 0.00 0.00 0.00 0.00 0.00 0.00 0.00 0.00 0.00 0.00 0.00 0.00 0.00 0.00 0.00 0.00 0.00 0.00 0.00 0.00 0.00
0.00 0.00 0.00 0.00 0.00 0.00 0.00 0.00 0.00 0.00 0.00 0.00 0.00 0.00 0.00 0.00 0.00 0.00 0.00 0.00 0.00 0.00 0.00 0.00 0.00 0.00 0.00 0.00 0.00 0.00 0.00 0.00 0.00 0.00 0.00 0.00 0.00 0.00 0.00 0.00 0.00 0.00 0.00 0.00
0.00 0.00 0.00 0.00 0.00 0.00 0.00 0.00 0.00 0.00 0.00 0.00 0.00 0.00 0.00 0.00 0.00 0.00 0.00 0.00 0.00 0.00 0.00 0.00 0.00 0.00 0.00 0.00 0.00 0.00 0.00 0.00 0.00 0.00 0.00 0.00 0.00 0.00 0.00 0.00 0.00 0.00 0.00 0.00
0.00 0.00 0.00 0.00 0.00 0.00 0.00 0.00 0.00 0.00 0.00 0.00 0.00 0.00 0.00 0.00 0.00 0.00 0.00 0.00 0.00 0.00 0.00 0.00 0.00 0.00 0.00 0.00 0.00 0.00 0.00 0.00 0.00 0.00 0.00 0.00 0.00 0.00 0.00 0.00 0.00 0.00 0.00 0.00
0.00 0.00 0.00 0.00 0.00 0.00 0.00 0.00 0.00 0.00 0.00 0.00 0.00 0.00 0.00 0.00 0.00 0.00 0.00 0.00 0.00 0.00 0.00 0.00 0.00 0.00 0.00 0.00 0.00 0.00 0.00 0.00 0.00 0.00 0.00 0.00 0.00 0.00 0.00 0.00 0.00 0.00 0.00 0.00
0.00 0.00 0.00 0.00 0.00 0.00 0.00 0.00 0.00 0.00 0.00 0.00 0.00 0.00 0.00 0.00 0.00 0.00 0.00 0.00 0.00 0.00 0.00 0.00 0.00 0.00 0.00 0.00 0.00 0.00 0.00 0.00 0.00 0.00 0.00 0.00 0.00 0.00 0.00 0.00 0.00 0.00 0.00 0.00
0.00 0.00 0.00 0.00 0.00 0.00 0.00 0.00 0.00 0.00 0.00 0.00 0.00 0.00 0.00 0.00 0.00 0.00 0.00 0.00 0.00 0.00 0.00 0.00 0.00 0.00 0.00 0.00 0.00 0.00 0.00 0.00 0.00 0.00 0.00 0.00 0.00 0.00 0.00 0.00 0.00 0.00 0.00 0.00
0.00 0.00 0.00 0.00 0.00 0.00 0.00 0.00 0.00 0.00 0.00 0.00 0.00 0.00 0.00 0.00 0.00 0.00 0.00 0.00 0.00 0.00 0.00 0.00 0.00 0.00 0.00 0.00 0.00 0.00 0.00 0.00 0.00 0.00 0.00 0.00 0.00 0.00 0.00 0.00 0.00 0.00 0.00 0.00
0.00 0.00 0.00 0.00 0.00 0.00 0.00 0.00 0.00 0.00 0.00 0.00 0.00 0.00 0.00 0.00 0.00 0.00 0.00 0.00 0.00 0.00 0.00 0.00 0.00 0.00 0.00 0.00 0.00 0.00 0.00 0.00 0.00 0.00 0.00 0.00 0.00 0.00 0.00 0.00 0.00 0.00 0.01 0.00
0.00 0.00 0.00 0.00 0.00 0.00 0.00 0.00 0.00 0.00 0.00 0.00 0.00 0.00 0.00 0.00 0.00 0.00 0.00 0.00 0.00 0.00 0.00 0.00 0.00 0.00 0.00 0.00 0.00 0.00 0.00 0.00 0.00 0.00 0.00 0.00 0.00 0.00 0.00 0.00 0.01 0.02 0.02 0.01
0.00 0.00 0.00 0.00 0.00 0.00 0.00 0.00 0.00 0.00 0.00 0.00 0.00 0.00 0.00 0.00 0.00 0.00 0.00 0.00 0.00 0.00 0.00 0.00 0.00 0.00 0.00 0.00 0.00 0.00 0.00 0.00 0.00 0.00 0.00 0.00 0.00 0.00 0.00 0.00 0.01 0.04 0.03 0.03
0.00 0.00 0.00 0.00 0.00 0.00 0.00 0.00 0.00 0.00 0.00 0.00 0.00 0.00 0.00 0.00 0.00 0.00 0.00 0.00 0.00 0.00 0.00 0.00 0.00 0.00 0.00 0.00 0.00 0.00 0.00 0.00 0.00 0.00 0.00 0.00 0.00 0.00 0.00 0.00 0.00 0.00 0.01 0.02
0.00 0.00 0.00 0.00 0.00 0.00 0.00 0.00 0.00 0.00 0.00 0.00 0.00 0.00 0.00 0.00 0.00 0.00 0.00 0.00 0.00 0.00 0.00 0.00 0.00 0.00 0.00 0.00 0.00 0.00 0.00 0.00 0.00 0.00 0.00 0.00 0.00 0.00 0.00 0.00 0.00 0.00 0.00 0.00
0.00 0.00 0.00 0.00 0.00 0.00 0.00 0.00 0.00 0.00 0.00 0.00 0.00 0.00 0.00 0.00 0.00 0.00 0.00 0.00 0.00 0.00 0.00 0.00 0.00 0.00 0.00 0.00 0.00 0.00 0.00 0.00 0.00 0.00 0.00 0.00 0.00 0.00 0.00 0.00 0.00 0.00 0.00 0.00
0.00 0.00 0.00 0.00 0.00 0.00 0.00 0.00 0.00 0.00 0.00 0.00 0.00 0.00 0.00 0.00 0.00 0.00 0.00 0.00 0.00 0.00 0.00 0.00 0.00 0.00 0.00 0.00 0.00 0.00 0.00 0.00 0.00 0.00 0.00 0.00 0.00 0.00 0.00 0.00 0.00 0.00 0.00 0.00
0.00 0.00 0.00 0.00 0.00 0.00 0.00 0.00 0.00 0.00 0.00 0.00 0.00 0.00 0.00 0.00 0.00 0.00 0.00 0.00 0.00 0.00 0.00 0.00 0.00 0.00 0.00 0.00 0.00 0.00 0.00 0.00 0.00 0.00 0.00 0.00 0.00 0.00 0.00 0.00 0.00 0.00 0.00 0.00
0.00 0.00 0.00 0.00 0.00 0.00 0.00 0.00 0.00 0.00 0.00 0.00 0.00 0.00 0.00 0.00 0.00 0.00 0.00 0.00 0.00 0.00 0.00 0.00 0.00 0.00 0.00 0.00 0.00 0.00 0.00 0.00 0.00 0.00 0.00 0.00 0.00 0.00 0.00 0.00 0.00 0.00 0.00 0.00
0.00 0.00 0.00 0.00 0.00 0.00 0.00 0.00 0.00 0.00 0.00 0.00 0.00 0.00 0.00 0.00 0.00 0.00 0.00 0.00 0.00 0.00 0.00 0.00 0.00 0.00 0.00 0.00 0.00 0.00 0.00 0.00 0.00 0.00 0.00 0.00 0.00 0.00 0.00 0.00 0.00 0.00 0.00 0.00
0.00 0.00 0.00 0.00 0.00 0.00 0.00 0.00 0.00 0.00 0.00 0.00 0.00 0.00 0.00 0.00 0.00 0.00 0.00 0.00 0.00 0.00 0.00 0.00 0.00 0.00 0.00 0.00 0.00 0.00 0.00 0.00 0.00 0.00 0.00 0.00 0.00 0.00 0.00 0.00 0.00 0.00 0.00 0.00
0.00 0.00 0.00 0.00 0.00 0.00 0.00 0.00 0.00 0.00 0.00 0.00 0.00 0.00 0.00 0.00 0.00 0.00 0.00 0.00 0.00 0.00 0.00 0.00 0.00 0.00 0.00 0.00 0.00 0.00 0.00 0.00 0.00 0.00 0.00 0.00 0.00 0.00 0.00 0.00 0.00 0.00 0.00 0.00
0.00 0.00 0.00 0.00 0.00 0.00 0.00 0.00 0.00 0.00 0.00 0.00 0.00 0.00 0.00 0.00 0.00 0.00 0.00 0.00 0.00 0.00 0.00 0.00 0.00 0.00 0.00 0.00 0.00 0.00 0.00 0.00 0.00 0.00 0.00 0.00 0.00 0.00 0.00 0.00 0.00 0.00 0.00 0.00
0.00 0.00 0.00 0.00 0.00 0.00 0.00 0.00 0.00 0.00 0.00 0.00 0.00 0.00 0.00 0.00 0.00 0.00 0.00 0.00 0.00 0.00 0.00 0.00 0.00 0.00 0.00 0.00 0.00 0.00 0.00 0.00 0.00 0.00 0.00 0.00 0.00 0.00 0.00 0.00 0.00 0.00 0.00 0.00
0.00 0.00 0.00 0.00 0.00 0.00 0.00 0.00 0.00 0.00 0.00 0.00 0.00 0.00 0.00 0.00 0.00 0.00 0.00 0.00 0.00 0.00 0.00 0.00 0.00 0.00 0.00 0.00 0.00 0.00 0.00 0.00 0.00 0.00 0.00 0.00 0.00 0.00 0.00 0.00 0.00 0.00 0.00 0.00
0.00 0.00 0.00 0.00 0.00 0.00 0.00 0.00 0.00 0.00 0.00 0.00 0.00 0.00 0.00 0.00 0.00 0.00 0.00 0.00 0.00 0.00 0.00 0.00 0.00 0.00 0.00 0.00 0.00 0.00 0.00 0.00 0.00 0.00 0.00 0.00 0.00 0.00 0.00 0.00 0.00 0.00 0.00 0.00
0.00 0.00 0.00 0.00 0.00 0.00 0.00 0.00 0.00 0.00 0.00 0.00 0.00 0.00 0.00 0.00 0.00 0.00 0.00 0.00 0.00 0.00 0.00 0.00 0.00 0.00 0.00 0.00 0.00 0.00 0.00 0.00 0.00 0.00 0.00 0.00 0.00 0.00 0.00 0.00 0.00 0.00 0.00 0.00
0.00 0.00 0.00 0.00 0.00 0.00 0.00 0.00 0.00 0.00 0.00 0.00 0.00 0.00 0.00 0.00 0.00 0.00 0.00 0.00 0.00 0.00 0.00 0.00 0.00 0.00 0.00 0.00 0.00 0.00 0.00 0.00 0.00 0.00 0.00 0.00 0.00 0.00 0.00 0.00 0.00 0.00 0.00 0.00
0.01 0.00 0.00 0.00 0.00 0.00 0.00 0.00 0.00 0.00 0.00 0.00 0.00 0.00 0.00 0.00 0.00 0.00 0.00 0.00 0.00 0.00 0.00 0.00 0.00 0.00 0.00 0.00 0.00 0.00 0.00 0.00 0.00 0.00 0.00 0.00 0.00 0.00 0.00 0.00 0.00 0.00 0.00 0.00
MSLP
1025.86 1025.79 1025.72 1025.61 1025.42 1025.11 1024.66 1024.06 1023.35 1022.57 1021.81 1021.17 1020.75 1020.63 1020.84 1021.41 1022.31 1023.46 1024.78 1026.16 1027.51 1028.75 1029.81 1030.67 1031.34 1031.83 1032.17 1032.40 1032.54 1032.60 1032.60 1032.51 1032.33 1032.05 1031.67 1031.21 1030.69 1030.12 1029.53 1028.93 1028.33 1027.72 1027.09 1026.42
1025.89 1025.71 1025.50 1025.24 1024.91 1024.49 1023.96 1023.33 1022.62 1021.89 1021.20 1020.63 1020.28 1020.20 1020.44 1020.99 1021.84 1022.93 1024.19 1025.51 1026.82 1028.05 1029.12 1030.04 1030.77 1031.34 1031.76 1032.06 1032.24 1032.33 1032.32 1032.21 1032.00 1031.68 1031.27 1030.77 1030.22 1029.63 1029.03 1028.44 1027.87 1027.31 1026.73 1026.14
1025.86 1025.54 1025.17 1024.74 1024.25 1023.70 1023.09 1022.42 1021.73 1021.06 1020.47 1020.02 1019.78 1019.79 1020.08 1020.65 1021.49 1022.53 1023.73 1024.99 1026.26 1027.45 1028.54 1029.47 1030.26 1030.89 1031.37 1031.71 1031.93 1032.02 1032.01 1031.87 1031.62 1031.27 1030.82 1030.29 1029.72 1029.12 1028.53 1027.95 1027.39 1026.85 1026.32 1025.78
1025.67 1025.20 1024.66 1024.07 1023.43 1022.75 1022.06 1021.38 1020.73 1020.15 1019.68 1019.38 1019.28 1019.42 1019.80 1020.43 1021.28 1022.30 1023.45 1024.66 1025.87 1027.03 1028.09 1029.03 1029.83 1030.48 1030.99 1031.36 1031.58 1031.68 1031.64 1031.48 1031.20 1030.81 1030.34 1029.80 1029.22 1028.62 1028.03 1027.46 1026.91 1026.38 1025.87 1025.35
1025.23 1024.63 1023.95 1023.21 1022.43 1021.66 1020.92 1020.24 1019.65 1019.19 1018.88 1018.74 1018.82 1019.11 1019.62 1020.33 1021.21 1022.23 1023.35 1024.51 1025.66 1026.77 1027.79 1028.70 1029.49 1030.14 1030.64 1031.00 1031.21 1031.28 1031.22 1031.03 1030.73 1030.32 1029.84 1029.30 1028.73 1028.15 1027.57 1027.01 1026.46 1025.93 1025.41 1024.88
1024.50 1023.80 1023.01 1022.16 1021.30 1020.47 1019.72 1019.07 1018.57 1018.24 1018.09 1018.15 1018.41 1018.87 1019.52 1020.32 1021.25 1022.28 1023.38 1024.49 1025.58 1026.62 1027.59 1028.45 1029.19 1029.81 1030.28 1030.61 1030.80 1030.84 1030.75 1030.53 1030.21 1029.81 1029.33 1028.81 1028.26 1027.71 1027.16 1026.61 1026.07 1025.53 1024.98 1024.42
1023.46 1022.71 1021.87 1020.97 1020.07 1019.23 1018.50 1017.93 1017.53 1017.34 1017.37 1017.61 1018.05 1018.68 1019.45 1020.35 1021.34 1022.38 1023.45 1024.52 1025.54 1026.52 1027.41 1028.20 1028.89 1029.46 1029.89 1030.17 1030.32 1030.33 1030.22 1029.99 1029.67 1029.27 1028.81 1028.33 1027.82 1027.31 1026.80 1026.27 1025.74 1025.18 1024.60 1024.00
1022.15 1021.40 1020.56 1019.67 1018.80 1018.00 1017.34 1016.85 1016.58 1016.54 1016.72 1017.13 1017.73 1018.49 1019.38 1020.36 1021.39 1022.44 1023.48 1024.49 1025.45 1026.35 1027.17 1027.90 1028.52 1029.03 1029.41 1029.67 1029.78 1029.77 1029.64 1029.41 1029.09 1028.72 1028.30 1027.86 1027.41 1026.95 1026.48 1025.99 1025.47 1024.91 1024.31 1023.66
1020.66 1019.95 1019.16 1018.33 1017.53 1016.82 1016.26 1015.89 1015.74 1015.83 1016.15 1016.69 1017.42 1018.29 1019.25 1020.28 1021.32 1022.36 1023.36 1024.32 1025.21 1026.04 1026.79 1027.46 1028.03 1028.49 1028.85 1029.08 1029.18 1029.16 1029.04 1028.82 1028.53 1028.18 1027.81 1027.41 1027.01 1026.61 1026.18 1025.73 1025.24 1024.69 1024.08 1023.41
1019.05 1018.42 1017.72 1017.00 1016.31 1015.72 1015.28 1015.03 1015.00 1015.21 1015.64 1016.28 1017.08 1018.01 1019.02 1020.06 1021.09 1022.10 1023.05 1023.95 1024.78 1025.55 1026.24 1026.86 1027.40 1027.84 1028.18 1028.41 1028.53 1028.53 1028.43 1028.24 1027.98 1027.68 1027.34 1027.00 1026.64 1026.28 1025.90 1025.49 1025.03 1024.50 1023.90 1023.23
1017.40 1016.86 1016.28 1015.70 1015.15 1014.70 1014.39 1014.26 1014.34 1014.64 1015.15 1015.84 1016.69 1017.64 1018.65 1019.67 1020.67 1021.63 1022.53 1023.37 1024.14 1024.85 1025.51 1026.10 1026.63 1027.08 1027.44 1027.71 1027.86 1027.91 1027.85 1027.71 1027.49 1027.23 1026.93 1026.62 1026.30 1025.97 1025.62 1025.24 1024.81 1024.32 1023.75 1023.11
1015.75 1015.31 1014.86 1014.42 1014.03 1013.72 1013.54 1013.53 1013.70 1014.07 1014.63 1015.35 1016.21 1017.15 1018.13 1019.11 1020.06 1020.97 1021.81 1022.60 1023.32 1024.00 1024.63 1025.22 1025.77 1026.25 1026.66 1026.99 1027.21 1027.32 1027.33 1027.24 1027.08 1026.85 1026.58 1026.28 1025.98 1025.66 1025.33 1024.97 1024.57 1024.12 1023.59 1023.00
1014.09 1013.76 1013.43 1013.14 1012.89 1012.72 1012.67 1012.76 1013.01 1013.44 1014.03 1014.76 1015.60 1016.52 1017.46 1018.40 1019.30 1020.15 1020.95 1021.68 1022.38 1023.04 1023.67 1024.28 1024.85 1025.39 1025.87 1026.28 1026.58 1026.78 1026.87 1026.85 1026.73 1026.53 1026.28 1025.99 1025.68 1025.36 1025.03 1024.68 1024.30 1023.88 1023.41 1022.87
1012.42 1012.17 1011.97 1011.80 1011.69 1011.65 1011.71 1011.89 1012.21 1012.68 1013.29 1014.03 1014.86 1015.75 1016.66 1017.55 1018.41 1019.23 1019.98 1020.69 1021.37 1022.02 1022.66 1023.30 1023.93 1024.53 1025.09 1025.58 1025.98 1026.27 1026.44 1026.49 1026.43 1026.26 1026.02 1025.72 1025.40 1025.06 1024.71 1024.36 1024.00 1023.61 1023.19 1022.72
1010.71 1010.55 1010.45 1010.40 1010.39 1010.46 1010.61 1010.86 1011.24 1011.75 1012.38 1013.12 1013.95 1014.82 1015.71 1016.59 1017.43 1018.21 1018.96 1019.65 1020.32 1020.98 1021.65 1022.32 1022.99 1023.66 1024.30 1024.89 1025.38 1025.77 1026.02 1026.14 1026.12 1025.99 1025.76 1025.46 1025.11 1024.75 1024.39 1024.03 1023.68 1023.32 1022.95 1022.56
1008.97 1008.88 1008.87 1008.91 1009.00 1009.14 1009.36 1009.67 1010.09 1010.63 1011.28 1012.03 1012.87 1013.74 1014.63 1015.51 1016.35 1017.13 1017.88 1018.58 1019.25 1019.93 1020.62 1021.32 1022.05 1022.78 1023.49 1024.15 1024.73 1025.20 1025.54 1025.72 1025.77 1025.67 1025.46 1025.16 1024.80 1024.43 1024.05 1023.69 1023.35 1023.03 1022.71 1022.38
1007.26 1007.24 1007.29 1007.40 1007.54 1007.74 1008.00 1008.34 1008.79 1009.34 1010.01 1010.78 1011.62 1012.52 1013.42 1014.32 1015.17 1015.98 1016.74 1017.46 1018.16 1018.85 1019.56 1020.29 1021.06 1021.83 1022.60 1023.33 1023.99 1024.53 1024.94 1025.20 1025.30 1025.25 1025.07 1024.79 1024.45 1024.08 1023.71 1023.36 1023.04 1022.76 1022.49 1022.22
1005.67 1005.71 1005.81 1005.94 1006.11 1006.33 1006.59 1006.94 1007.38 1007.94 1008.61 1009.39 1010.25 1011.17 1012.10 1013.02 1013.91 1014.75 1015.54 1016.28 1017.00 1017.72 1018.45 1019.21 1020.00 1020.81 1021.62 1022.40 1023.12 1023.73 1024.21 1024.53 1024.70 1024.71 1024.58 1024.34 1024.04 1023.70 1023.36 1023.04 1022.76 1022.52 1022.30 1022.09
1004.34 1004.41 1004.53 1004.66 1004.81 1005.00 1005.24 1005.56 1005.98 1006.52 1007.18 1007.95 1008.82 1009.75 1010.71 1011.66 1012.58 1013.45 1014.27 1015.04 1015.79 1016.52 1017.27 1018.04 1018.85 1019.68 1020.52 1021.34 1022.10 1022.77 1023.32 1023.71 1023.95 1024.03 1023.97 1023.80 1023.56 1023.28 1023.00 1022.73 1022.51 1022.32 1022.15 1021.99
1003.37 1003.45 1003.55 1003.65 1003.75 1003.88 1004.05 1004.31 1004.67 1005.17 1005.79 1006.54 1007.40 1008.33 1009.30 1010.27 1011.21 1012.11 1012.95 1013.75 1014.51 1015.27 1016.03 1016.81 1017.63 1018.48 1019.34 1020.19 1020.99 1021.70 1022.31 1022.77 1023.08 1023.25 1023.27 1023.19 1023.03 1022.83 1022.62 1022.43 1022.27 1022.14 1022.03 1021.91
1002.81 1002.88 1002.93 1002.96 1002.98 1003.02 1003.11 1003.28 1003.57 1003.99 1004.56 1005.26 1006.09 1007.00 1007.95 1008.92 1009.87 1010.77 1011.63 1012.44 1013.22 1013.99 1014.76 1015.55 1016.38 1017.24 1018.11 1018.98 1019.81 1020.57 1021.22 1021.75 1022.14 1022.39 1022.51 1022.52 1022.46 1022.36 1022.24 1022.13 1022.04 1021.98 1021.92 1021.83
1002.65 1002.68 1002.66 1002.60 1002.53 1002.46 1002.44 1002.52 1002.71 1003.05 1003.55 1004.19 1004.96 1005.83 1006.75 1007.69 1008.62 1009.51 1010.37 1011.18 1011.96 1012.73 1013.50 1014.31 1015.14 1016.01 1016.89 1017.78 1018.64 1019.43 1020.13 1020.72 1021.18 1021.52 1021.73 1021.84 1021.88 1021.87 1021.84 1021.82 1021.81 1021.80 1021.78 1021.72
1002.79 1002.75 1002.65 1002.50 1002.32 1002.15 1002.04 1002.02 1002.13 1002.39 1002.80 1003.37 1004.08 1004.88 1005.74 1006.63 1007.52 1008.38 1009.21 1010.01 1010.78 1011.54 1012.32 1013.12 1013.96 1014.84 1015.74 1016.64 1017.52 1018.34 1019.09 1019.72 1020.25 1020.66 1020.95 1021.15 1021.28 1021.37 1021.43 1021.49 1021.54 1021.59 1021.60 1021.56
1003.07 1002.95 1002.77 1002.53 1002.27 1002.02 1001.83 1001.74 1001.77 1001.97 1002.31 1002.81 1003.44 1004.17 1004.96 1005.78 1006.61 1007.42 1008.20 1008.96 1009.71 1010.46 1011.23 1012.04 1012.88 1013.76 1014.67 1015.58 1016.48 1017.33 1018.10 1018.79 1019.37 1019.84 1020.20 1020.48 1020.69 1020.86 1021.00 1021.12 1021.23 1021.32 1021.36 1021.33
1003.27 1003.09 1002.84 1002.55 1002.23 1001.93 1001.71 1001.58 1001.58 1001.73 1002.03 1002.46 1003.03 1003.68 1004.39 1005.13 1005.88 1006.62 1007.35 1008.06 1008.78 1009.51 1010.26 1011.06 1011.90 1012.78 1013.70 1014.62 1015.53 1016.40 1017.20 1017.91 1018.53 1019.05 1019.47 1019.81 1020.09 1020.33 1020.53 1020.71 1020.87 1020.99 1021.05 1021.03
1003.21 1002.99 1002.71 1002.39 1002.06 1001.77 1001.55 1001.43 1001.43 1001.57 1001.85 1002.25 1002.76 1003.34 1003.97 1004.63 1005.30 1005.97 1006.62 1007.28 1007.95 1008.65 1009.39 1010.17 1011.01 1011.89 1012.80 1013.73 1014.65 1015.52 1016.34 1017.08 1017.72 1018.28 1018.75 1019.14 1019.47 1019.76 1020.02 1020.24 1020.44 1020.59 1020.67 1020.67
1002.75 1002.52 1002.24 1001.94 1001.66 1001.42 1001.25 1001.18 1001.22 1001.39 1001.67 1002.05 1002.52 1003.05 1003.62 1004.20 1004.79 1005.38 1005.97 1006.58 1007.20 1007.86 1008.57 1009.34 1010.17 1011.04 1011.96 1012.88 1013.80 1014.68 1015.50 1016.26 1016.92 1017.51 1018.01 1018.44 1018.82 1019.15 1019.45 1019.71 1019.94 1020.12 1020.23 1020.24
Thickness
5655 5648 5638 5640 5638 5628 5626 5634 5633 5645 5643 5647 5643 5628 5611 5590 5566 5542 5522 5502 5484 5466 5448 5429 5410 5392 5374 5358 5341 5325 5311 5298 5286 5274 5264 5253 5244 5234 5224 5214 5205 5196 5187 5179
5649 5640 5634 5634 5639 5632 5627 5626 5629 5631 5634 5648 5636 5614 5602 5585 5562 5541 5524 5505 5485 5466 5447 5429 5411 5392 5374 5357 5340 5324 5310 5297 5285 5274 5264 5254 5245 5235 5226 5217 5208 5199 5191 5183
5657 5645 5639 5654 5662 5641 5634 5634 5634 5635 5648 5646 5626 5613 5603 5586 5564 5547 5530 5509 5487 5467 5448 5430 5410 5391 5373 5355 5338 5323 5310 5297 5286 5275 5265 5256 5247 5238 5229 5221 5212 5204 5195 5187
5643 5649 5644 5681 5660 5653 5647 5646 5639 5641 5646 5640 5627 5614 5599 5585 5569 5552 5532 5510 5489 5469 5448 5429 5408 5389 5370 5353 5337 5323 5311 5299 5288 5277 5267 5258 5249 5241 5233 5224 5216 5208 5200 5192
5631 5644 5657 5671 5653 5644 5642 5653 5656 5644 5644 5637 5608 5597 5602 5585 5568 5554 5534 5513 5492 5470 5449 5427 5406 5387 5369 5353 5339 5326 5314 5303 5291 5280 5270 5261 5253 5245 5236 5228 5220 5212 5205 5197
5619 5629 5643 5677 5653 5642 5639 5649 5663 5647 5642 5628 5600 5613 5618 5586 5564 5548 5529 5508 5488 5467 5446 5426 5406 5387 5370 5356 5343 5330 5318 5305 5293 5282 5273 5264 5256 5248 5239 5231 5223 5216 5209 5202
5619 5623 5653 5666 5640 5633 5642 5665 5664 5649 5641 5621 5610 5615 5600 5576 5559 5542 5523 5503 5484 5464 5445 5426 5406 5387 5372 5359 5346 5333 5319 5306 5295 5286 5276 5267 5259 5251 5243 5234 5227 5220 5213 5207
5620 5619 5645 5650 5634 5643 5667 5668 5657 5648 5639 5625 5617 5601 5582 5568 5553 5535 5517 5499 5481 5464 5445 5425 5405 5388 5375 5363 5349 5334 5320 5309 5299 5289 5279 5269 5262 5254 5246 5238 5231 5225 5219 5213
5640 5660 5670 5653 5659 5663 5660 5657 5652 5644 5636 5624 5611 5596 5580 5564 5549 5533 5516 5498 5480 5464 5445 5425 5407 5391 5379 5366 5349 5335 5323 5312 5302 5291 5282 5274 5265 5257 5250 5242 5234 5228 5223 5218
5634 5657 5663 5655 5655 5657 5653 5651 5651 5641 5632 5619 5608 5597 5580 5564 5548 5532 5515 5498 5480 5463 5446 5428 5411 5394 5380 5366 5350 5336 5325 5315 5304 5294 5285 5277 5268 5260 5252 5245 5238 5232 5227 5221
5637 5656 5655 5662 5659 5660 5657 5651 5643 5636 5626 5616 5607 5596 5581 5566 5549 5533 5515 5498 5480 5465 5450 5434 5416 5398 5382 5367 5352 5339 5328 5317 5306 5295 5286 5278 5270 5262 5254 5247 5238 5232 5227 5220
5657 5669 5658 5670 5670 5660 5653 5649 5643 5633 5622 5612 5604 5595 5581 5567 5551 5533 5516 5498 5481 5466 5452 5437 5420 5403 5386 5369 5355 5342 5330 5320 5309 5298 5288 5278 5270 5264 5256 5247 5240 5233 5226 5220
5670 5668 5661 5664 5660 5653 5649 5648 5641 5631 5623 5613 5601 5591 5579 5564 5548 5531 5515 5499 5485 5471 5456 5440 5423 5406 5390 5373 5358 5345 5333 5322 5310 5300 5290 5280 5272 5264 5259 5252 5244 5237 5229 5222
5657 5648 5644 5651 5652 5650 5644 5638 5630 5623 5616 5608 5598 5586 5574 5559 5544 5530 5518 5504 5489 5474 5458 5442 5426 5410 5394 5377 5361 5348 5336 5324 5312 5302 5292 5282 5274 5266 5259 5253 5248 5243 5234 5226
5649 5639 5641 5648 5647 5640 5631 5623 5617 5613 5607 5599 5591 5580 5568 5556 5544 5533 5520 5504 5489 5474 5459 5443 5428 5414 5396 5380 5365 5352 5339 5327 5316 5305 5294 5284 5275 5267 5260 5254 5248 5243 5237 5230
5642 5632 5630 5631 5637 5637 5627 5619 5617 5618 5608 5597 5586 5577 5567 5557 5545 5533 5519 5504 5490 5478 5463 5446 5432 5418 5400 5384 5369 5355 5342 5329 5317 5307 5297 5287 5277 5269 5262 5255 5249 5244 5238 5231
5619 5621 5623 5623 5632 5635 5631 5626 5622 5620 5610 5598 5587 5576 5562 5551 5541 5530 5518 5505 5493 5481 5466 5451 5436 5420 5403 5387 5373 5359 5346 5333 5319 5309 5299 5289 5279 5271 5263 5255 5249 5244 5238 5231
5620 5624 5626 5627 5633 5637 5634 5627 5620 5615 5607 5597 5583 5570 5559 5552 5546 5533 5518 5503 5489 5478 5466 5453 5437 5421 5405 5390 5375 5362 5349 5336 5323 5312 5301 5291 5282 5273 5264 5257 5250 5245 5239 5232
5612 5613 5617 5621 5627 5628 5626 5622 5616 5609 5600 5589 5579 5571 5563 5556 5547 5533 5517 5502 5490 5480 5469 5454 5439 5423 5408 5393 5378 5364 5351 5338 5326 5315 5304 5293 5283 5274 5266 5258 5252 5245 5239 5233
5599 5601 5604 5608 5610 5608 5609 5609 5604 5599 5593 5584 5575 5567 5559 5552 5542 5529 5515 5505 5500 5493 5476 5457 5441 5425 5411 5396 5382 5367 5354 5341 5330 5318 5306 5296 5286 5277 5268 5260 5252 5246 5240 5234
5581 5582 5583 5587 5593 5598 5601 5601 5596 5592 5584 5574 5569 5565 5559 5548 5536 5525 5514 5508 5499 5487 5474 5459 5444 5430 5414 5399 5385 5371 5357 5345 5333 5321 5310 5299 5289 5279 5270 5261 5254 5246 5240 5234
5561 5565 5571 5576 5581 5586 5587 5584 5582 5579 5573 5567 5562 5555 5548 5539 5530 5521 5517 5515 5504 5487 5472 5460 5447 5433 5418 5403 5389 5374 5361 5348 5336 5324 5313 5302 5291 5281 5272 5263 5255 5248 5241 5235
5548 5551 5555 5558 5561 5566 5566 5566 5565 5565 5563 5559 5554 5551 5547 5540 5530 5522 5515 5508 5500 5487 5473 5462 5449 5435 5420 5405 5391 5377 5364 5351 5339 5328 5316 5305 5294 5284 5274 5264 5256 5249 5242 5236
5527 5529 5530 5532 5534 5539 5545 5550 5547 5549 5550 5549 5545 5542 5539 5533 5525 5521 5518 5508 5497 5485 5473 5462 5449 5436 5421 5407 5393 5380 5367 5355 5343 5331 5319 5307 5296 5286 5275 5266 5258 5251 5244 5238
5502 5503 5506 5508 5515 5526 5530 5530 5529 5530 5531 5533 5533 5528 5526 5527 5524 5517 5509 5503 5494 5482 5470 5459 5448 5436 5422 5409 5395 5382 5370 5358 5346 5334 5322 5310 5299 5289 5278 5269 5260 5253 5246 5240
5480 5486 5492 5493 5498 5506 5512 5515 5517 5518 5517 5519 5520 5518 5515 5513 5510 5506 5500 5494 5487 5479 5467 5456 5446 5434 5422 5409 5396 5384 5372 5360 5348 5336 5325 5314 5303 5292 5281 5272 5262 5255 5248 5242
5465 5469 5472 5480 5486 5490 5494 5497 5502 5507 5508 5509 5508 5507 5504 5501 5499 5496 5491 5487 5480 5473 5463 5454 5445 5435 5423 5410 5398 5385 5373 5362 5351 5339 5328 5316 5305 5295 5285 5274 5265 5257 5250 5244